Year,Month,Day,Hour,Minute,Value (Times are PST for temperature in C)
2008,05,25,00,00,15.30
2008,05,25,00,01,15.30
2008,05,25,00,02,15.20
2008,05,25,00,03,15.20
2008,05,25,00,04,15.20
2008,05,25,00,05,15.10
2008,05,25,00,06,15.10
2008,05,25,00,08,15.00
2008,05,25,00,09,15.00
2008,05,25,00,10,15.00
2008,05,25,00,11,15.00
2008,05,25,00,12,15.00
2008,05,25,00,13,15.00
2008,05,25,00,14,15.00
2008,05,25,00,15,14.90
2008,05,25,00,16,14.90
2008,05,25,00,17,14.90
2008,05,25,00,18,14.80
2008,05,25,00,19,14.80
2008,05,25,00,20,14.80
2008,05,25,00,21,14.80
2008,05,25,00,22,14.70
2008,05,25,00,23,14.70
2008,05,25,00,24,14.70
2008,05,25,00,25,14.70
2008,05,25,00,26,14.60
2008,05,25,00,27,14.60
2008,05,25,00,28,14.60
2008,05,25,00,29,14.60
2008,05,25,00,30,14.50
2008,05,25,00,31,14.40
2008,05,25,00,32,14.40
2008,05,25,00,33,14.40
2008,05,25,00,34,14.40
2008,05,25,00,35,14.30
2008,05,25,00,36,14.30
2008,05,25,00,37,14.30
2008,05,25,00,38,14.30
2008,05,25,00,39,14.30
2008,05,25,00,40,14.20
2008,05,25,00,41,14.20
2008,05,25,00,42,14.20
2008,05,25,00,43,14.20
2008,05,25,00,44,14.10
2008,05,25,00,45,14.10
2008,05,25,00,46,14.10
2008,05,25,00,47,14.10
2008,05,25,00,48,14.00
2008,05,25,00,49,13.90
2008,05,25,00,50,13.90
2008,05,25,00,51,13.90
2008,05,25,00,52,13.90
2008,05,25,00,53,13.90
2008,05,25,00,54,13.80
2008,05,25,00,55,13.80
2008,05,25,00,56,13.80
2008,05,25,00,57,13.70
2008,05,25,00,58,13.70
2008,05,25,00,59,13.70
2008,05,25,01,00,13.70
2008,05,25,01,01,13.70
2008,05,25,01,02,13.60
2008,05,25,01,03,13.60
2008,05,25,01,04,13.60
2008,05,25,01,05,13.60
2008,05,25,01,06,13.50
2008,05,25,01,08,13.40
2008,05,25,01,09,13.40
2008,05,25,01,10,13.40
2008,05,25,01,11,13.40
2008,05,25,01,12,13.40
2008,05,25,01,13,13.30
2008,05,25,01,14,13.30
2008,05,25,01,15,13.30
2008,05,25,01,16,13.20
2008,05,25,01,17,13.20
2008,05,25,01,18,13.20
2008,05,25,01,19,13.20
2008,05,25,01,20,13.20
2008,05,25,01,21,13.10
2008,05,25,01,22,13.10
2008,05,25,01,23,13.10
2008,05,25,01,24,13.10
2008,05,25,01,25,13.10
2008,05,25,01,26,13.00
2008,05,25,01,27,13.00
2008,05,25,01,28,12.90
2008,05,25,01,29,12.90
2008,05,25,01,30,12.90
2008,05,25,01,31,12.90
2008,05,25,01,32,12.90
2008,05,25,01,33,12.90
2008,05,25,01,34,12.80
2008,05,25,01,35,12.80
2008,05,25,01,36,12.80
2008,05,25,01,37,12.80
2008,05,25,01,38,12.80
2008,05,25,01,39,12.80
2008,05,25,01,40,12.70
2008,05,25,01,41,12.70
2008,05,25,01,42,12.70
2008,05,25,01,43,12.70
2008,05,25,01,44,12.70
2008,05,25,01,45,12.70
2008,05,25,01,46,12.70
2008,05,25,01,48,12.60
2008,05,25,01,49,12.60
2008,05,25,01,50,12.60
2008,05,25,01,51,12.60
2008,05,25,01,52,12.60
2008,05,25,01,53,12.60
2008,05,25,01,54,12.60
2008,05,25,01,55,12.60
2008,05,25,01,56,12.60
2008,05,25,01,57,12.60
2008,05,25,01,58,12.60
2008,05,25,01,59,12.50
2008,05,25,02,00,12.50
2008,05,25,02,01,12.50
2008,05,25,02,02,12.50
2008,05,25,02,03,12.50
2008,05,25,02,04,12.50
2008,05,25,02,05,12.50
2008,05,25,02,06,12.50
2008,05,25,02,07,12.50
2008,05,25,02,08,12.40
2008,05,25,02,09,12.40
2008,05,25,02,10,12.40
2008,05,25,02,11,12.40
2008,05,25,02,12,12.40
2008,05,25,02,13,12.40
2008,05,25,02,14,12.40
2008,05,25,02,15,12.40
2008,05,25,02,16,12.40
2008,05,25,02,17,12.40
2008,05,25,02,18,12.40
2008,05,25,02,19,12.50
2008,05,25,02,20,12.50
2008,05,25,02,21,12.50
2008,05,25,02,22,12.50
2008,05,25,02,23,12.50
2008,05,25,02,24,12.50
2008,05,25,02,25,12.50
2008,05,25,02,26,12.50
2008,05,25,02,27,12.50
2008,05,25,02,28,12.50
2008,05,25,02,29,12.50
2008,05,25,02,30,12.50
2008,05,25,02,31,12.60
2008,05,25,02,32,12.60
2008,05,25,02,33,12.60
2008,05,25,02,34,12.60
2008,05,25,02,35,12.60
2008,05,25,02,36,12.60
2008,05,25,02,37,12.60
2008,05,25,02,38,12.60
2008,05,25,02,39,12.60
2008,05,25,02,40,12.60
2008,05,25,02,41,12.60
2008,05,25,02,42,12.60
2008,05,25,02,43,12.60
2008,05,25,02,44,12.60
2008,05,25,02,45,12.60
2008,05,25,02,46,12.60
2008,05,25,02,47,12.60
2008,05,25,02,48,12.60
2008,05,25,02,49,12.60
2008,05,25,02,50,12.60
2008,05,25,02,51,12.60
2008,05,25,02,52,12.60
2008,05,25,02,53,12.60
2008,05,25,02,54,12.60
2008,05,25,02,55,12.50
2008,05,25,02,56,12.50
2008,05,25,02,57,12.50
2008,05,25,02,58,12.50
2008,05,25,02,59,12.50
2008,05,25,03,00,12.40
2008,05,25,03,01,12.50
2008,05,25,03,02,12.40
2008,05,25,03,03,12.40
2008,05,25,03,04,12.40
2008,05,25,03,05,12.40
2008,05,25,03,06,12.40
2008,05,25,03,07,12.40
2008,05,25,03,09,12.40
2008,05,25,03,10,12.40
2008,05,25,03,11,12.40
2008,05,25,03,12,12.40
2008,05,25,03,13,12.40
2008,05,25,03,14,12.40
2008,05,25,03,15,12.40
2008,05,25,03,16,12.40
2008,05,25,03,17,12.40
2008,05,25,03,18,12.40
2008,05,25,03,19,12.40
2008,05,25,03,20,12.40
2008,05,25,03,21,12.40
2008,05,25,03,22,12.40
2008,05,25,03,23,12.40
2008,05,25,03,24,12.40
2008,05,25,03,25,12.40
2008,05,25,03,26,12.40
2008,05,25,03,27,12.40
2008,05,25,03,28,12.40
2008,05,25,03,29,12.40
2008,05,25,03,30,12.40
2008,05,25,03,31,12.40
2008,05,25,03,32,12.40
2008,05,25,03,33,12.40
2008,05,25,03,34,12.40
2008,05,25,03,35,12.40
2008,05,25,03,36,12.40
2008,05,25,03,37,12.40
2008,05,25,03,38,12.40
2008,05,25,03,39,12.30
2008,05,25,03,40,12.40
2008,05,25,03,41,12.30
2008,05,25,03,42,12.30
2008,05,25,03,43,12.30
2008,05,25,03,44,12.30
2008,05,25,03,45,12.30
2008,05,25,03,46,12.30
2008,05,25,03,47,12.30
2008,05,25,03,48,12.30
2008,05,25,03,49,12.30
2008,05,25,03,50,12.30
2008,05,25,03,51,12.30
2008,05,25,03,52,12.30
2008,05,25,03,53,12.30
2008,05,25,03,54,12.30
2008,05,25,03,55,12.30
2008,05,25,03,56,12.30
2008,05,25,03,57,12.30
2008,05,25,03,58,12.30
2008,05,25,03,59,12.30
2008,05,25,04,00,12.30
2008,05,25,04,01,12.30
2008,05,25,04,02,12.30
2008,05,25,04,03,12.30
2008,05,25,04,04,12.30
2008,05,25,04,05,12.30
2008,05,25,04,06,12.30
2008,05,25,04,07,12.30
2008,05,25,04,08,12.30
2008,05,25,04,09,12.30
2008,05,25,04,10,12.30
2008,05,25,04,11,12.30
2008,05,25,04,12,12.30
2008,05,25,04,13,12.30
2008,05,25,04,14,12.30
2008,05,25,04,15,12.40
2008,05,25,04,16,12.40
2008,05,25,04,17,12.40
2008,05,25,04,18,12.40
2008,05,25,04,19,12.40
2008,05,25,04,20,12.40
2008,05,25,04,21,12.40
2008,05,25,04,22,12.40
2008,05,25,04,23,12.40
2008,05,25,04,24,12.40
2008,05,25,04,25,12.40
2008,05,25,04,26,12.40
2008,05,25,04,27,12.40
2008,05,25,04,28,12.40
2008,05,25,04,29,12.40
2008,05,25,04,30,12.40
2008,05,25,04,31,12.40
2008,05,25,04,32,12.40
2008,05,25,04,33,12.40
2008,05,25,04,34,12.40
2008,05,25,04,35,12.50
2008,05,25,04,36,12.50
2008,05,25,04,37,12.50
2008,05,25,04,38,12.50
2008,05,25,04,39,12.50
2008,05,25,04,40,12.50
2008,05,25,04,41,12.50
2008,05,25,04,42,12.50
2008,05,25,04,43,12.50
2008,05,25,04,44,12.50
2008,05,25,04,45,12.50
2008,05,25,04,46,12.50
2008,05,25,04,47,12.50
2008,05,25,04,48,12.50
2008,05,25,04,49,12.60
2008,05,25,04,50,12.60
2008,05,25,04,51,12.50
2008,05,25,04,52,12.60
2008,05,25,04,53,12.60
2008,05,25,04,54,12.60
2008,05,25,04,55,12.60
2008,05,25,04,56,12.60
2008,05,25,04,57,12.60
2008,05,25,04,58,12.60
2008,05,25,04,59,12.60
2008,05,25,05,00,12.60
2008,05,25,05,01,12.50
2008,05,25,05,02,12.60
2008,05,25,05,03,12.60
2008,05,25,05,04,12.50
2008,05,25,05,05,12.60
2008,05,25,05,06,12.60
2008,05,25,05,07,12.60
2008,05,25,05,08,12.60
2008,05,25,05,10,12.60
2008,05,25,05,11,12.60
2008,05,25,05,12,12.50
2008,05,25,05,13,12.60
2008,05,25,05,14,12.60
2008,05,25,05,15,12.60
2008,05,25,05,16,12.60
2008,05,25,05,17,12.60
2008,05,25,05,18,12.60
2008,05,25,05,19,12.60
2008,05,25,05,20,12.60
2008,05,25,05,21,12.60
2008,05,25,05,22,12.60
2008,05,25,05,23,12.60
2008,05,25,05,24,12.60
2008,05,25,05,25,12.60
2008,05,25,05,26,12.60
2008,05,25,05,27,12.60
2008,05,25,05,28,12.60
2008,05,25,05,29,12.60
2008,05,25,05,31,12.60
2008,05,25,05,32,12.60
2008,05,25,05,33,12.60
2008,05,25,05,34,12.60
2008,05,25,05,35,12.60
2008,05,25,05,36,12.60
2008,05,25,05,37,12.60
2008,05,25,05,38,12.60
2008,05,25,05,39,12.60
2008,05,25,05,40,12.60
2008,05,25,05,41,12.60
2008,05,25,05,42,12.60
2008,05,25,05,43,12.60
2008,05,25,05,44,12.60
2008,05,25,05,45,12.60
2008,05,25,05,46,12.60
2008,05,25,05,47,12.60
2008,05,25,05,48,12.60
2008,05,25,05,49,12.60
2008,05,25,05,50,12.60
2008,05,25,05,51,12.60
2008,05,25,05,52,12.60
2008,05,25,05,53,12.60
2008,05,25,05,54,12.60
2008,05,25,05,55,12.60
2008,05,25,05,56,12.60
2008,05,25,05,57,12.60
2008,05,25,05,58,12.60
2008,05,25,05,59,12.60
2008,05,25,06,00,12.70
2008,05,25,06,01,12.60
2008,05,25,06,02,12.70
2008,05,25,06,03,12.70
2008,05,25,06,04,12.70
2008,05,25,06,05,12.70
2008,05,25,06,06,12.70
2008,05,25,06,07,12.70
2008,05,25,06,08,12.70
2008,05,25,06,09,12.60
2008,05,25,06,10,12.60
2008,05,25,06,11,12.60
2008,05,25,06,12,12.60
2008,05,25,06,13,12.60
2008,05,25,06,14,12.60
2008,05,25,06,15,12.60
2008,05,25,06,16,12.60
2008,05,25,06,17,12.60
2008,05,25,06,18,12.60
2008,05,25,06,19,12.60
2008,05,25,06,20,12.60
2008,05,25,06,21,12.60
2008,05,25,06,22,12.60
2008,05,25,06,23,12.60
2008,05,25,06,24,12.60
2008,05,25,06,25,12.60
2008,05,25,06,26,12.60
2008,05,25,06,27,12.60
2008,05,25,06,28,12.60
2008,05,25,06,29,12.60
2008,05,25,06,30,12.60
2008,05,25,06,31,12.60
2008,05,25,06,32,12.60
2008,05,25,06,33,12.60
2008,05,25,06,34,12.60
2008,05,25,06,35,12.60
2008,05,25,06,36,12.60
2008,05,25,06,37,12.60
2008,05,25,06,38,12.60
2008,05,25,06,39,12.60
2008,05,25,06,40,12.60
2008,05,25,06,41,12.60
2008,05,25,06,42,12.60
2008,05,25,06,43,12.60
2008,05,25,06,44,12.60
2008,05,25,06,45,12.60
2008,05,25,06,46,12.70
2008,05,25,06,47,12.70
2008,05,25,06,48,12.70
2008,05,25,06,49,12.70
2008,05,25,06,50,12.70
2008,05,25,06,51,12.70
2008,05,25,06,52,12.70
2008,05,25,06,53,12.70
2008,05,25,06,54,12.70
2008,05,25,06,55,12.70
2008,05,25,06,56,12.70
2008,05,25,06,57,12.70
2008,05,25,06,58,12.70
2008,05,25,06,59,12.80
2008,05,25,07,00,12.70
2008,05,25,07,01,12.70
2008,05,25,07,02,12.80
2008,05,25,07,03,12.80
2008,05,25,07,04,12.80
2008,05,25,07,05,12.80
2008,05,25,07,06,12.80
2008,05,25,07,07,12.80
2008,05,25,07,08,12.80
2008,05,25,07,09,12.80
2008,05,25,07,11,12.80
2008,05,25,07,12,12.80
2008,05,25,07,13,12.80
2008,05,25,07,14,12.80
2008,05,25,07,15,12.80
2008,05,25,07,16,12.80
2008,05,25,07,17,12.80
2008,05,25,07,18,12.90
2008,05,25,07,19,12.90
2008,05,25,07,20,12.90
2008,05,25,07,21,12.90
2008,05,25,07,22,12.90
2008,05,25,07,23,13.00
2008,05,25,07,24,13.00
2008,05,25,07,25,13.10
2008,05,25,07,26,13.10
2008,05,25,07,27,13.10
2008,05,25,07,28,13.10
2008,05,25,07,29,13.20
2008,05,25,07,30,13.20
2008,05,25,07,31,13.20
2008,05,25,07,32,13.20
2008,05,25,07,33,13.20
2008,05,25,07,34,13.20
2008,05,25,07,35,13.20
2008,05,25,07,36,13.30
2008,05,25,07,37,13.30
2008,05,25,07,38,13.30
2008,05,25,07,39,13.30
2008,05,25,07,40,13.30
2008,05,25,07,41,13.30
2008,05,25,07,42,13.40
2008,05,25,07,43,13.40
2008,05,25,07,44,13.40
2008,05,25,07,45,13.40
2008,05,25,07,46,13.40
2008,05,25,07,47,13.40
2008,05,25,07,48,13.40
2008,05,25,07,49,13.50
2008,05,25,07,50,13.50
2008,05,25,07,51,13.50
2008,05,25,07,52,13.60
2008,05,25,07,53,13.60
2008,05,25,07,54,13.60
2008,05,25,07,55,13.60
2008,05,25,07,56,13.60
2008,05,25,07,57,13.60
2008,05,25,07,58,13.60
2008,05,25,07,59,13.60
2008,05,25,08,00,13.60
2008,05,25,08,01,13.60
2008,05,25,08,02,13.60
2008,05,25,08,03,13.60
2008,05,25,08,04,13.70
2008,05,25,08,05,13.70
2008,05,25,08,06,13.70
2008,05,25,08,07,13.70
2008,05,25,08,08,13.70
2008,05,25,08,09,13.70
2008,05,25,08,10,13.70
2008,05,25,08,11,13.70
2008,05,25,08,12,13.80
2008,05,25,08,13,13.80
2008,05,25,08,14,13.80
2008,05,25,08,15,13.80
2008,05,25,08,16,13.80
2008,05,25,08,17,13.80
2008,05,25,08,18,13.90
2008,05,25,08,19,13.90
2008,05,25,08,20,13.90
2008,05,25,08,21,13.90
2008,05,25,08,22,14.00
2008,05,25,08,23,14.10
2008,05,25,08,24,14.10
2008,05,25,08,25,14.10
2008,05,25,08,27,14.20
2008,05,25,08,28,14.20
2008,05,25,08,29,14.30
2008,05,25,08,30,14.30
2008,05,25,08,31,14.30
2008,05,25,08,32,14.40
2008,05,25,08,33,14.40
2008,05,25,08,34,14.50
2008,05,25,08,35,14.60
2008,05,25,08,36,14.60
2008,05,25,08,37,14.70
2008,05,25,08,38,14.70
2008,05,25,08,39,14.80
2008,05,25,08,40,14.80
2008,05,25,08,41,14.90
2008,05,25,08,42,15.00
2008,05,25,08,43,15.00
2008,05,25,08,44,15.00
2008,05,25,08,45,15.00
2008,05,25,08,46,15.00
2008,05,25,08,47,15.00
2008,05,25,08,48,15.10
2008,05,25,08,49,15.10
2008,05,25,08,50,15.20
2008,05,25,08,51,15.20
2008,05,25,08,52,15.20
2008,05,25,08,53,15.20
2008,05,25,08,54,15.20
2008,05,25,08,55,15.20
2008,05,25,08,56,15.30
2008,05,25,08,57,15.30
2008,05,25,08,58,15.30
2008,05,25,08,59,15.30
2008,05,25,09,00,15.30
2008,05,25,09,01,15.30
2008,05,25,09,02,15.30
2008,05,25,09,03,15.40
2008,05,25,09,04,15.40
2008,05,25,09,05,15.40
2008,05,25,09,06,15.40
2008,05,25,09,07,15.50
2008,05,25,09,08,15.50
2008,05,25,09,09,15.60
2008,05,25,09,10,15.60
2008,05,25,09,12,15.70
2008,05,25,09,13,15.80
2008,05,25,09,14,15.90
2008,05,25,09,15,15.90
2008,05,25,09,16,16.10
2008,05,25,09,17,16.20
2008,05,25,09,18,16.30
2008,05,25,09,19,16.30
2008,05,25,09,20,16.40
2008,05,25,09,21,16.50
2008,05,25,09,22,16.60
2008,05,25,09,23,16.70
2008,05,25,09,24,16.70
2008,05,25,09,25,16.80
2008,05,25,09,26,16.90
2008,05,25,09,27,16.90
2008,05,25,09,28,17.00
2008,05,25,09,29,17.10
2008,05,25,09,30,17.10
2008,05,25,09,31,17.10
2008,05,25,09,32,17.20
2008,05,25,09,33,17.20
2008,05,25,09,34,17.20
2008,05,25,09,35,17.20
2008,05,25,09,36,17.10
2008,05,25,09,37,17.10
2008,05,25,09,38,17.10
2008,05,25,09,39,17.10
2008,05,25,09,40,17.10
2008,05,25,09,41,17.10
2008,05,25,09,42,17.20
2008,05,25,09,43,17.20
2008,05,25,09,44,17.20
2008,05,25,09,45,17.20
2008,05,25,09,46,17.20
2008,05,25,09,47,17.20
2008,05,25,09,48,17.20
2008,05,25,09,49,17.20
2008,05,25,09,50,17.30
2008,05,25,09,51,17.30
2008,05,25,09,52,17.30
2008,05,25,09,53,17.30
2008,05,25,09,54,17.30
2008,05,25,09,55,17.30
2008,05,25,09,56,17.30
2008,05,25,09,57,17.40
2008,05,25,09,58,17.40
2008,05,25,09,59,17.40
2008,05,25,10,00,17.40
2008,05,25,10,01,17.50
2008,05,25,10,02,17.50
2008,05,25,10,03,17.60
2008,05,25,10,04,17.60
2008,05,25,10,05,17.70
2008,05,25,10,06,17.70
2008,05,25,10,07,17.70
2008,05,25,10,08,17.70
2008,05,25,10,09,17.60
2008,05,25,10,10,17.60
2008,05,25,10,11,17.60
2008,05,25,10,12,17.60
2008,05,25,10,13,17.70
2008,05,25,10,14,17.70
2008,05,25,10,15,17.70
2008,05,25,10,16,17.70
2008,05,25,10,17,17.80
2008,05,25,10,18,17.80
2008,05,25,10,19,17.80
2008,05,25,10,20,17.80
2008,05,25,10,21,17.90
2008,05,25,10,22,17.90
2008,05,25,10,23,17.90
2008,05,25,10,24,17.90
2008,05,25,10,25,17.90
2008,05,25,10,26,18.00
2008,05,25,10,27,18.00
2008,05,25,10,28,18.00
2008,05,25,10,29,18.10
2008,05,25,10,30,18.10
2008,05,25,10,31,18.20
2008,05,25,10,32,18.20
2008,05,25,10,33,18.20
2008,05,25,10,34,18.30
2008,05,25,10,35,18.30
2008,05,25,10,36,18.30
2008,05,25,10,37,18.40
2008,05,25,10,38,18.40
2008,05,25,10,39,18.40
2008,05,25,10,40,18.30
2008,05,25,10,41,18.40
2008,05,25,10,42,18.40
2008,05,25,10,43,18.40
2008,05,25,10,44,18.50
2008,05,25,10,45,18.60
2008,05,25,10,46,18.60
2008,05,25,10,47,18.70
2008,05,25,10,49,18.80
2008,05,25,10,50,18.80
2008,05,25,10,51,18.80
2008,05,25,10,52,18.90
2008,05,25,10,53,18.90
2008,05,25,10,54,18.90
2008,05,25,10,55,18.90
2008,05,25,10,56,18.90
2008,05,25,10,57,18.90
2008,05,25,10,58,18.90
2008,05,25,10,59,18.90
2008,05,25,11,00,18.90
2008,05,25,11,01,19.00
2008,05,25,11,02,19.00
2008,05,25,11,03,19.00
2008,05,25,11,04,19.10
2008,05,25,11,05,19.10
2008,05,25,11,06,19.10
2008,05,25,11,07,19.20
2008,05,25,11,08,19.20
2008,05,25,11,09,19.20
2008,05,25,11,10,19.20
2008,05,25,11,11,19.30
2008,05,25,11,12,19.30
2008,05,25,11,13,19.30
2008,05,25,11,14,19.40
2008,05,25,11,15,19.40
2008,05,25,11,16,19.60
2008,05,25,11,17,19.60
2008,05,25,11,18,19.70
2008,05,25,11,19,19.70
2008,05,25,11,20,19.80
2008,05,25,11,21,19.90
2008,05,25,11,22,19.90
2008,05,25,11,23,20.00
2008,05,25,11,24,20.00
2008,05,25,11,25,20.10
2008,05,25,11,26,20.10
2008,05,25,11,27,20.20
2008,05,25,11,28,20.30
2008,05,25,11,29,20.30
2008,05,25,11,30,20.40
2008,05,25,11,31,20.60
2008,05,25,11,32,20.60
2008,05,25,11,33,20.70
2008,05,25,11,34,20.70
2008,05,25,11,35,20.70
2008,05,25,11,36,20.70
2008,05,25,11,37,20.70
2008,05,25,11,38,20.80
2008,05,25,11,39,20.80
2008,05,25,11,40,20.80
2008,05,25,11,41,20.90
2008,05,25,11,42,21.00
2008,05,25,11,43,21.10
2008,05,25,11,44,21.20
2008,05,25,11,45,21.20
2008,05,25,11,46,21.30
2008,05,25,11,47,21.40
2008,05,25,11,48,21.40
2008,05,25,11,49,21.50
2008,05,25,11,50,21.60
2008,05,25,11,51,21.70
2008,05,25,11,52,21.80
2008,05,25,11,53,21.80
2008,05,25,11,54,21.80
2008,05,25,11,55,21.90
2008,05,25,11,56,22.00
2008,05,25,11,57,22.10
2008,05,25,11,58,22.10
2008,05,25,11,59,22.20
2008,05,25,12,00,22.20
2008,05,25,12,01,22.30
2008,05,25,12,02,22.30
2008,05,25,12,03,22.40
2008,05,25,12,04,22.40
2008,05,25,12,05,22.50
2008,05,25,12,06,22.50
2008,05,25,12,07,22.60
2008,05,25,12,08,22.60
2008,05,25,12,09,22.60
2008,05,25,12,10,22.70
2008,05,25,12,11,22.70
2008,05,25,12,12,22.70
2008,05,25,12,13,22.70
2008,05,25,12,14,22.70
2008,05,25,12,15,22.70
2008,05,25,12,16,22.80
2008,05,25,12,17,22.80
2008,05,25,12,18,22.80
2008,05,25,12,19,22.90
2008,05,25,12,20,22.90
2008,05,25,12,21,22.90
2008,05,25,12,22,22.90
2008,05,25,12,23,22.90
2008,05,25,12,24,22.90
2008,05,25,12,25,22.90
2008,05,25,12,26,23.00
2008,05,25,12,27,23.10
2008,05,25,12,28,23.10
2008,05,25,12,29,23.20
2008,05,25,12,30,23.30
2008,05,25,12,31,23.30
2008,05,25,12,32,23.30
2008,05,25,12,33,23.40
2008,05,25,12,34,23.40
2008,05,25,12,35,23.60
2008,05,25,12,36,23.60
2008,05,25,12,37,23.60
2008,05,25,12,38,23.60
2008,05,25,12,39,23.60
2008,05,25,12,40,23.60
2008,05,25,12,41,23.50
2008,05,25,12,42,23.40
2008,05,25,12,43,23.40
2008,05,25,12,44,23.40
2008,05,25,12,45,23.40
2008,05,25,12,46,23.50
2008,05,25,12,47,23.50
2008,05,25,12,48,23.40
2008,05,25,12,49,23.40
2008,05,25,12,50,23.40
2008,05,25,12,51,23.50
2008,05,25,12,52,23.50
2008,05,25,12,53,23.60
2008,05,25,12,54,23.50
2008,05,25,12,55,23.50
2008,05,25,12,56,23.50
2008,05,25,12,57,23.40
2008,05,25,12,58,23.40
2008,05,25,12,59,23.40
2008,05,25,13,00,23.40
2008,05,25,13,01,23.50
2008,05,25,13,02,23.50
2008,05,25,13,03,23.60
2008,05,25,13,04,23.60
2008,05,25,13,05,23.60
2008,05,25,13,06,23.70
2008,05,25,13,07,23.70
2008,05,25,13,08,23.70
2008,05,25,13,09,23.80
2008,05,25,13,10,23.90
2008,05,25,13,11,23.90
2008,05,25,13,12,23.80
2008,05,25,13,13,23.80
2008,05,25,13,14,23.80
2008,05,25,13,15,23.90
2008,05,25,13,16,23.90
2008,05,25,13,17,23.90
2008,05,25,13,18,23.90
2008,05,25,13,19,23.90
2008,05,25,13,20,23.90
2008,05,25,13,21,23.90
2008,05,25,13,22,23.90
2008,05,25,13,23,24.00
2008,05,25,13,24,24.00
2008,05,25,13,25,24.00
2008,05,25,13,26,24.00
2008,05,25,13,27,24.00
2008,05,25,13,28,24.10
2008,05,25,13,29,24.10
2008,05,25,13,30,24.10
2008,05,25,13,31,24.20
2008,05,25,13,32,24.30
2008,05,25,13,33,24.30
2008,05,25,13,34,24.30
2008,05,25,13,35,24.40
2008,05,25,13,36,24.40
2008,05,25,13,37,24.40
2008,05,25,13,38,24.40
2008,05,25,13,39,24.40
2008,05,25,13,40,24.30
2008,05,25,13,41,24.30
2008,05,25,13,42,24.30
2008,05,25,13,43,24.40
2008,05,25,13,44,24.40
2008,05,25,13,45,24.50
2008,05,25,13,46,24.60
2008,05,25,13,47,24.60
2008,05,25,13,48,24.60
2008,05,25,13,49,24.60
2008,05,25,13,50,24.70
2008,05,25,13,51,24.70
2008,05,25,13,52,24.80
2008,05,25,13,53,24.90
2008,05,25,13,54,24.90
2008,05,25,13,55,24.90
2008,05,25,13,56,25.00
2008,05,25,13,57,25.10
2008,05,25,13,58,25.10
2008,05,25,13,59,25.10
2008,05,25,14,00,25.10
2008,05,25,14,01,25.10
2008,05,25,14,02,25.10
2008,05,25,14,03,25.10
2008,05,25,14,04,25.20
2008,05,25,14,05,25.20
2008,05,25,14,06,25.30
2008,05,25,14,07,25.30
2008,05,25,14,08,25.30
2008,05,25,14,09,25.40
2008,05,25,14,10,25.50
2008,05,25,14,11,25.60
2008,05,25,14,12,25.70
2008,05,25,14,13,25.80
2008,05,25,14,14,25.80
2008,05,25,14,15,25.90
2008,05,25,14,16,25.90
2008,05,25,14,17,26.10
2008,05,25,14,18,26.20
2008,05,25,14,19,26.30
2008,05,25,14,20,26.40
2008,05,25,14,21,26.50
2008,05,25,14,22,26.60
2008,05,25,14,23,26.70
2008,05,25,14,24,26.70
2008,05,25,14,25,26.80
2008,05,25,14,26,26.90
2008,05,25,14,27,27.00
2008,05,25,14,28,27.10
2008,05,25,14,29,27.10
2008,05,25,14,30,27.10
2008,05,25,14,31,27.20
2008,05,25,14,32,27.20
2008,05,25,14,33,27.20
2008,05,25,14,34,27.20
2008,05,25,14,35,27.20
2008,05,25,14,36,27.20
2008,05,25,14,37,27.20
2008,05,25,14,38,27.20
2008,05,25,14,39,27.10
2008,05,25,14,40,27.10
2008,05,25,14,41,27.10
2008,05,25,14,42,27.00
2008,05,25,14,43,26.90
2008,05,25,14,44,26.90
2008,05,25,14,45,26.80
2008,05,25,14,46,26.80
2008,05,25,14,47,26.70
2008,05,25,14,48,26.70
2008,05,25,14,49,26.60
2008,05,25,14,50,26.60
2008,05,25,14,51,26.50
2008,05,25,14,52,26.40
2008,05,25,14,53,26.30
2008,05,25,14,54,26.30
2008,05,25,14,55,26.20
2008,05,25,14,56,26.20
2008,05,25,14,57,26.10
2008,05,25,14,58,26.00
2008,05,25,14,59,25.90
2008,05,25,15,00,25.90
2008,05,25,15,01,25.90
2008,05,25,15,02,25.80
2008,05,25,15,03,25.80
2008,05,25,15,04,25.70
2008,05,25,15,05,25.70
2008,05,25,15,06,25.60
2008,05,25,15,07,25.60
2008,05,25,15,08,25.50
2008,05,25,15,09,25.40
2008,05,25,15,10,25.40
2008,05,25,15,11,25.30
2008,05,25,15,12,25.30
2008,05,25,15,13,25.20
2008,05,25,15,14,25.10
2008,05,25,15,15,25.10
2008,05,25,15,16,25.10
2008,05,25,15,17,25.00
2008,05,25,15,18,24.90
2008,05,25,15,19,24.90
2008,05,25,15,20,24.90
2008,05,25,15,21,24.80
2008,05,25,15,22,24.80
2008,05,25,15,23,24.70
2008,05,25,15,24,24.60
2008,05,25,15,25,24.60
2008,05,25,15,26,24.50
2008,05,25,15,27,24.50
2008,05,25,15,28,24.40
2008,05,25,15,29,24.40
2008,05,25,15,30,24.40
2008,05,25,15,31,24.40
2008,05,25,15,32,24.30
2008,05,25,15,33,24.30
2008,05,25,15,34,24.20
2008,05,25,15,35,24.20
2008,05,25,15,36,24.20
2008,05,25,15,37,24.10
2008,05,25,15,38,24.10
2008,05,25,15,39,24.10
2008,05,25,15,40,24.10
2008,05,25,15,41,24.00
2008,05,25,15,42,23.90
2008,05,25,15,43,23.90
2008,05,25,15,44,23.90
2008,05,25,15,45,23.90
2008,05,25,15,46,23.80
2008,05,25,15,47,23.80
2008,05,25,15,48,23.90
2008,05,25,15,49,23.90
2008,05,25,15,50,24.00
2008,05,25,15,51,24.10
2008,05,25,15,52,24.10
2008,05,25,15,53,24.20
2008,05,25,15,54,24.30
2008,05,25,15,55,24.40
2008,05,25,15,57,24.60
2008,05,25,15,58,24.70
2008,05,25,15,59,24.80
2008,05,25,16,00,24.90
2008,05,25,16,01,24.90
2008,05,25,16,02,25.00
2008,05,25,16,03,25.10
2008,05,25,16,04,25.10
2008,05,25,16,05,25.20
2008,05,25,16,06,25.20
2008,05,25,16,07,25.20
2008,05,25,16,08,25.20
2008,05,25,16,09,25.20
2008,05,25,16,10,25.20
2008,05,25,16,11,25.10
2008,05,25,16,12,25.10
2008,05,25,16,13,25.00
2008,05,25,16,14,24.90
2008,05,25,16,15,24.80
2008,05,25,16,16,24.80
2008,05,25,16,17,24.70
2008,05,25,16,18,24.70
2008,05,25,16,19,24.60
2008,05,25,16,20,24.60
2008,05,25,16,21,24.50
2008,05,25,16,22,24.40
2008,05,25,16,23,24.40
2008,05,25,16,24,24.30
2008,05,25,16,25,24.30
2008,05,25,16,26,24.20
2008,05,25,16,27,24.20
2008,05,25,16,28,24.10
2008,05,25,16,29,24.10
2008,05,25,16,30,24.10
2008,05,25,16,31,23.90
2008,05,25,16,32,23.90
2008,05,25,16,33,23.90
2008,05,25,16,34,23.90
2008,05,25,16,35,23.90
2008,05,25,16,36,23.90
2008,05,25,16,37,23.90
2008,05,25,16,38,23.90
2008,05,25,16,39,24.00
2008,05,25,16,40,24.00
2008,05,25,16,41,24.00
2008,05,25,16,42,24.00
2008,05,25,16,43,24.00
2008,05,25,16,44,24.00
2008,05,25,16,45,24.00
2008,05,25,16,46,24.00
2008,05,25,16,47,24.00
2008,05,25,16,48,24.00
2008,05,25,16,49,24.00
2008,05,25,16,50,23.90
2008,05,25,16,51,23.90
2008,05,25,16,52,23.80
2008,05,25,16,53,23.80
2008,05,25,16,54,23.80
2008,05,25,16,55,23.70
2008,05,25,16,56,23.70
2008,05,25,16,57,23.60
2008,05,25,16,58,23.60
2008,05,25,16,59,23.50
2008,05,25,17,00,23.50
2008,05,25,17,01,23.40
2008,05,25,17,02,23.30
2008,05,25,17,03,23.30
2008,05,25,17,04,23.20
2008,05,25,17,05,23.10
2008,05,25,17,06,23.00
2008,05,25,17,07,22.90
2008,05,25,17,08,22.80
2008,05,25,17,09,22.80
2008,05,25,17,10,22.70
2008,05,25,17,11,22.70
2008,05,25,17,12,22.70
2008,05,25,17,13,22.70
2008,05,25,17,14,22.70
2008,05,25,17,15,22.60
2008,05,25,17,16,22.60
2008,05,25,17,17,22.60
2008,05,25,17,18,22.60
2008,05,25,17,19,22.60
2008,05,25,17,20,22.60
2008,05,25,17,21,22.60
2008,05,25,17,22,22.60
2008,05,25,17,23,22.60
2008,05,25,17,24,22.70
2008,05,25,17,25,22.70
2008,05,25,17,26,22.80
2008,05,25,17,27,22.90
2008,05,25,17,28,22.90
2008,05,25,17,29,23.00
2008,05,25,17,30,23.10